Overview Statistics Trail Chart Weather Telemetry Raw packets
 

This is the latest recevied weather packets stored in our database for station/object N5DGC. If no packets are shown the sender has not sent any weather packets the latest 10 day(s).

<< 20 21 22 23 24 25 26 >>
Time Temp. Humidity Pressure Rain* Wind** Luminosity Snow
1788469044 33.89° C 22% 1238.1 hPa 0 mm - 848 W/m² -
1788468743 32.78° C 23% 1238.3 hPa 0 mm - 927 W/m² -
1788468439 32.22° C 25% 1238.2 hPa 0 mm - 354 W/m² -
1788468135 33.33° C 24% 1238.3 hPa 0 mm - 828 W/m² -
1788467831 34.44° C 23% 1238.3 hPa 0 mm - 850 W/m² -
1788467527 33.89° C 22% 1238.7 hPa 0 mm - 853 W/m² -
1788467226 32.78° C 24% 1238.4 hPa 0 mm - 850 W/m² -
1788466922 32.22° C 24% 1238.7 hPa 0 mm - 845 W/m² -
1788466621 32.78° C 24% 1238.7 hPa 0 mm - 857 W/m² -
1788466316 32.22° C 25% 1238.6 hPa 0 mm - 876 W/m² -
1788466010 32.22° C 24% 1238.7 hPa 0 mm - 870 W/m² -
1788465706 32.78° C 23% 1238.7 hPa 0 mm - 863 W/m² -
1788465402 33.33° C 23% 1238.9 hPa 0 mm - 886 W/m² -
1788465097 33.33° C 23% 1238.8 hPa 0 mm - 881 W/m² -
1788464797 33.33° C 23% 1239.1 hPa 0 mm - 778 W/m² -
1788464497 32.22° C 24% 1239.1 hPa 0 mm - 951 W/m² -
1788464193 31.67° C 25% 1239 hPa 0 mm - 979 W/m² -
1788463889 31.67° C 25% 1239.4 hPa 0 mm - 708 W/m² -
1788463585 31.67° C 25% 1239.3 hPa 0 mm - 913 W/m² -
1788463280 30.56° C 26% 1239.4 hPa 0 mm - 918 W/m² -
1788462976 30.56° C 26% 1239.5 hPa 0 mm - 357 W/m² -
1788462671 30° C 26% 1239.7 hPa 0 mm - 536 W/m² -
1788462365 29.44° C 26% 1239.5 hPa 0 mm - 287 W/m² -
1788462065 29.44° C 26% 1239.7 hPa 0 mm - 251 W/m² -
1788461760 30° C 26% 1239.8 hPa 0 mm - 203 W/m² -

* Rain latest hour (hover to see other rain measurements)
** Current wind speed in m/s (hover to see current wind gust speed)